Home > Weather > Słupsk > Past weeks

Flag for Poland Past Weather in Słupsk, Poland — Yesterday and Last 2 Weeks

Now
60 °F

Overcast.


Feels Like: 60 °F
Forecast: 53 / 69 °F
Wind: 2 mph from West

Location: Leba

Current Time: May 27, 2016 at 10:40:05 AM

Latest Report: May 27, 2016 at 10:00 AM


Visibility: 13 mi

Pressure: 30.06 "Hg

Humidity: 77%

Dew Point: 53 °F

Location of SłupskLocation

Past Weather in Słupsk — Graph

°F

Słupsk Temperature Yesterday

Maximum temperature yesterday: 55 °F (at 3:00 PM)
Minimum temperature yesterday: 51 °F (at 10:00 PM)
Average temperature yesterday: 52 °F

High & Low Weather Summary for the Past Weeks

 TemperatureHumidityPressure
High82 °F (May 23, 4:00 PM)97% (May 14, 3:00 AM)30.05 "Hg (May 14, 3:00 AM)
Low43 °F (May 18, 3:00 AM)33% (May 23, 4:00 PM)29.50 "Hg (May 13, 10:00 PM)
Average55 °F77%29.84 "Hg
* Reported May 12 9:00 AM — May 27 9:00 AM, Słupsk, Weather by CustomWeather, © 2016

Note: Actual official high and low records may vary slightly from our data, if they occured in-between our weather recording intervals... More about our weather records

Advertising

Słupsk Weather History for the Previous 24 Hours

Scroll right to see more
 ConditionsComfort  
Time TempWeatherWind HumidityBarometerVisibility
9:00 AM
Fri, May 27
58 °FOvercast.1 mph79%30.05 "Hg12 mi
8:00 AM55 °FOvercast.1 mph89%30.04 "Hg12 mi
7:00 AM54 °FOvercast.1 mph93%30.04 "Hg12 mi
6:00 AM52 °FPassing clouds.20 mph95%30.04 "Hg2 mi
5:00 AM51 °FFog.2 mph95%30.04 "Hg9 mi
4:00 AM50 °FFog.2 mph95%30.04 "Hg9 mi
3:00 AM49 °FFog.2 mph95%30.02 "Hg9 mi
2:00 AM49 °FFog.1 mph93%30.04 "Hg12 mi
1:00 AM51 °FPassing clouds.1 mph90%30.04 "Hg12 mi
12:00 AM53 °FPassing clouds.2 mph90%30.05 "Hg12 mi
11:00 PM
Thu, May 26
52 °FOvercast.2 mph89%30.04 "Hg12 mi
10:00 PM51 °FPassing clouds.2 mph90%30.03 "Hg12 mi
9:00 PM52 °FScattered clouds.3 mph85%30.03 "Hg12 mi
8:00 PMN/APassing clouds.18 mphN/AN/A3 mi
7:00 PM53 °FPartly sunny.5 mph79%30.03 "Hg12 mi
6:00 PM54 °FScattered clouds.5 mph76%30.03 "Hg12 mi
4:00 PM54 °FScattered clouds.6 mph77%30.05 "Hg12 mi
3:00 PM55 °FPartly sunny.3 mph80%30.04 "Hg12 mi
2:00 PMN/APassing clouds.23 mphN/AN/A1 mi
1:00 PMN/APassing clouds.23 mphN/AN/A2 mi
12:00 PM52 °FLow clouds.3 mph92%30.04 "Hg12 mi
11:00 AM53 °FSprinkles. Overcast.5 mph88%30.03 "Hg11 mi
10:00 AM53 °FOvercast.3 mph84%30.03 "Hg12 mi
Weather by CustomWeather, © 2016

See weather overviewHow to use our weather pages